Previsão horária em Al Hillah

Hoje, 27 Novembro, Sexta-feira

Tempo Temperatura Precipitação Vento Pressão Humidade
00:00 +19°C° 0 mm 3 m/s 757 mmHg 45%
01:00 +19°C° 0 mm 2 m/s 758 mmHg 47%
02:00 +18°C° 0 mm 2 m/s 758 mmHg 49%
03:00 +18°C° 0 mm 2 m/s 758 mmHg 49%
04:00 +17°C° 0 mm 2 m/s 759 mmHg 48%
05:00 +17°C° 0 mm 2 m/s 759 mmHg 46%
06:00 +17°C° 0 mm 2 m/s 759 mmHg 44%
07:00 +18°C° 0 mm 2 m/s 760 mmHg 42%
08:00 +18°C° 0 mm 2 m/s 760 mmHg 40%
09:00 +19°C° 0 mm 3 m/s 761 mmHg 41%
10:00 +20°C° 0 mm 2 m/s 761 mmHg 39%
11:00 +21°C° 0 mm 2 m/s 761 mmHg 36%
12:00 +23°C° 0 mm 2 m/s 761 mmHg 34%
13:00 +24°C° 0 mm 2 m/s 761 mmHg 33%
14:00 +24°C° 0 mm 2 m/s 760 mmHg 33%
15:00 +25°C° 0 mm 2 m/s 760 mmHg 32%
16:00 +24°C° 0 mm 2 m/s 760 mmHg 34%
17:00 +23°C° 0 mm 2 m/s 761 mmHg 37%
18:00 +21°C° 0 mm 3 m/s 761 mmHg 39%
19:00 +21°C° 0 mm 3 m/s 761 mmHg 41%
20:00 +20°C° 0 mm 3 m/s 761 mmHg 44%
21:00 +20°C° 0 mm 4 m/s 761 mmHg 46%
22:00 +19°C° 0 mm 4 m/s 762 mmHg 47%
23:00 +19°C° 0 mm 4 m/s 762 mmHg 49%

Amanhã, 28 Novembro, Sábado

Tempo Temperatura Precipitação Vento Pressão Humidade
00:00 +18°C° 0 mm 4 m/s 762 mmHg 51%
01:00 +18°C° 0 mm 4 m/s 761 mmHg 53%
02:00 +18°C° 0 mm 3 m/s 761 mmHg 55%
03:00 +18°C° 0 mm 3 m/s 761 mmHg 56%
04:00 +18°C° 0.1 mm 3 m/s 761 mmHg 62%
05:00 +17°C° 0.1 mm 3 m/s 761 mmHg 68%
06:00 +17°C° 0.1 mm 4 m/s 761 mmHg 73%
07:00 +17°C° 0.5 mm 5 m/s 761 mmHg 74%
08:00 +19°C° 0.5 mm 6 m/s 761 mmHg 76%
09:00 +18°C° 0.5 mm 7 m/s 761 mmHg 77%
10:00 +20°C° 0.9 mm 7 m/s 761 mmHg 75%
11:00 +20°C° 0.9 mm 7 m/s 761 mmHg 73%
12:00 +20°C° 0.9 mm 7 m/s 760 mmHg 71%
13:00 +20°C° 1 mm 6 m/s 760 mmHg 74%
14:00 +19°C° 1 mm 4 m/s 760 mmHg 76%
15:00 +19°C° 1 mm 3 m/s 759 mmHg 79%
16:00 +19°C° 0.5 mm 3 m/s 759 mmHg 81%
17:00 +18°C° 0.5 mm 4 m/s 759 mmHg 84%
18:00 +17°C° 0.5 mm 5 m/s 759 mmHg 87%
19:00 +17°C° 0.8 mm 5 m/s 759 mmHg 87%
20:00 +17°C° 0.8 mm 4 m/s 759 mmHg 88%
21:00 +17°C° 0.8 mm 4 m/s 759 mmHg 88%
22:00 +17°C° 0.3 mm 4 m/s 759 mmHg 89%
23:00 +17°C° 0.3 mm 4 m/s 759 mmHg 89%

Depois de amanhã, 29 Novembro, Domingo

Tempo Temperatura Precipitação Vento Pressão Humidade
00:00 +16°C° 0.3 mm 5 m/s 758 mmHg 89%
01:00 +16°C° 0.1 mm 5 m/s 758 mmHg 89%
02:00 +16°C° 0.1 mm 5 m/s 758 mmHg 88%
03:00 +16°C° 0.1 mm 5 m/s 758 mmHg 88%
04:00 +16°C° 0.1 mm 5 m/s 758 mmHg 87%
05:00 +16°C° 0.1 mm 5 m/s 758 mmHg 86%
06:00 +16°C° 0.1 mm 5 m/s 758 mmHg 85%
07:00 +16°C° 0.1 mm 5 m/s 759 mmHg 82%
08:00 +16°C° 0.1 mm 5 m/s 759 mmHg 79%
09:00 +17°C° 0.1 mm 5 m/s 759 mmHg 76%
10:00 +19°C° 0 mm 5 m/s 759 mmHg 68%
11:00 +20°C° 0 mm 6 m/s 759 mmHg 60%
12:00 +21°C° 0 mm 6 m/s 758 mmHg 52%
13:00 +22°C° 0 mm 6 m/s 758 mmHg 50%
14:00 +22°C° 0 mm 6 m/s 758 mmHg 48%
15:00 +22°C° 0 mm 6 m/s 758 mmHg 47%
16:00 +21°C° 0 mm 5 m/s 758 mmHg 48%
17:00 +21°C° 0 mm 5 m/s 759 mmHg 49%
18:00 +20°C° 0 mm 4 m/s 759 mmHg 50%
19:00 +19°C° 0 mm 4 m/s 759 mmHg 50%
20:00 +19°C° 0 mm 4 m/s 759 mmHg 51%
21:00 +18°C° 0 mm 4 m/s 760 mmHg 51%
22:00 +18°C° 0 mm 4 m/s 760 mmHg 52%
23:00 +18°C° 0 mm 3 m/s 760 mmHg 53%

30 Novembro, Segunda-feira

Tempo Temperatura Precipitação Vento Pressão Humidade
00:00 +17°C° 0 mm 3 m/s 760 mmHg 54%
01:00 +17°C° 0 mm 3 m/s 760 mmHg 55%
02:00 +16°C° 0 mm 3 m/s 760 mmHg 55%
03:00 +16°C° 0 mm 3 m/s 761 mmHg 56%
04:00 +16°C° 0 mm 3 m/s 761 mmHg 57%
05:00 +14°C° 0 mm 3 m/s 761 mmHg 57%
06:00 +14°C° 0 mm 3 m/s 761 mmHg 58%
07:00 +16°C° 0 mm 3 m/s 761 mmHg 56%
08:00 +17°C° 0 mm 3 m/s 762 mmHg 53%
09:00 +18°C° 0 mm 3 m/s 762 mmHg 50%
10:00 +19°C° 0 mm 3 m/s 762 mmHg 46%
11:00 +20°C° 0 mm 3 m/s 762 mmHg 43%
12:00 +21°C° 0 mm 3 m/s 762 mmHg 39%
13:00 +21°C° 0 mm 3 m/s 761 mmHg 38%
14:00 +21°C° 0 mm 3 m/s 761 mmHg 37%
15:00 +22°C° 0 mm 3 m/s 760 mmHg 36%
16:00 +21°C° 0 mm 3 m/s 761 mmHg 39%
17:00 +20°C° 0 mm 2 m/s 761 mmHg 42%
18:00 +19°C° 0 mm 2 m/s 761 mmHg 45%
19:00 +18°C° 0 mm 2 m/s 761 mmHg 46%
20:00 +19°C° 0 mm 1 m/s 761 mmHg 48%
21:00 +18°C° 0 mm 1 m/s 761 mmHg 49%
22:00 +18°C° 0 mm 1 m/s 761 mmHg 50%
23:00 +16°C° 0 mm 1 m/s 761 mmHg 52%

1 Dezembro, Terça-feira

Tempo Temperatura Precipitação Vento Pressão Humidade
00:00 +15°C° 0 mm 0 m/s 761 mmHg 53%
01:00 +14°C° 0 mm 0 m/s 761 mmHg 54%
02:00 +14°C° 0 mm 0 m/s 761 mmHg 54%
03:00 +14°C° 0 mm 0 m/s 760 mmHg 55%
04:00 +13°C° 0 mm 0 m/s 761 mmHg 56%
05:00 +13°C° 0 mm 0 m/s 761 mmHg 56%
06:00 +13°C° 0 mm 0 m/s 761 mmHg 56%
07:00 +14°C° 0 mm 0 m/s 761 mmHg 51%
08:00 +16°C° 0 mm 0 m/s 761 mmHg 46%
09:00 +17°C° 0 mm 0 m/s 761 mmHg 40%
10:00 +20°C° 0 mm 1 m/s 761 mmHg 38%
11:00 +21°C° 0 mm 1 m/s 761 mmHg 35%
12:00 +22°C° 0 mm 1 m/s 760 mmHg 33%
13:00 +22°C° 0 mm 1 m/s 760 mmHg 31%
14:00 +23°C° 0 mm 1 m/s 759 mmHg 30%
15:00 +23°C° 0 mm 1 m/s 759 mmHg 28%
16:00 +21°C° 0 mm 2 m/s 759 mmHg 31%
17:00 +20°C° 0 mm 2 m/s 759 mmHg 34%
18:00 +19°C° 0 mm 2 m/s 759 mmHg 37%
19:00 +19°C° 0 mm 2 m/s 759 mmHg 38%
20:00 +19°C° 0 mm 3 m/s 760 mmHg 39%
21:00 +19°C° 0 mm 3 m/s 760 mmHg 40%
22:00 +19°C° 0 mm 4 m/s 759 mmHg 44%
23:00 +18°C° 0 mm 4 m/s 759 mmHg 47%

2 Dezembro, Quarta-feira

Tempo Temperatura Precipitação Vento Pressão Humidade
00:00 +18°C° 0 mm 4 m/s 759 mmHg 51%
01:00 +17°C° 1.8 mm 4 m/s 759 mmHg 63%
02:00 +14°C° 1.8 mm 4 m/s 759 mmHg 75%
03:00 +13°C° 1.8 mm 4 m/s 759 mmHg 86%
04:00 +13°C° 1.4 mm 5 m/s 759 mmHg 86%
05:00 +13°C° 1.4 mm 6 m/s 759 mmHg 86%
06:00 +12°C° 1.4 mm 7 m/s 760 mmHg 86%
07:00 +12°C° 0.5 mm 7 m/s 760 mmHg 86%
08:00 +13°C° 0.5 mm 6 m/s 760 mmHg 86%
09:00 +13°C° 0.5 mm 6 m/s 760 mmHg 86%
10:00 +14°C° 0.3 mm 6 m/s 760 mmHg 85%
11:00 +14°C° 0.3 mm 6 m/s 760 mmHg 84%
12:00 +15°C° 0.3 mm 6 m/s 759 mmHg 83%
13:00 +15°C° 0.1 mm 5 m/s 759 mmHg 82%
14:00 +15°C° 0.1 mm 5 m/s 759 mmHg 81%
15:00 +17°C° 0.1 mm 4 m/s 759 mmHg 79%
16:00 +17°C° 0.1 mm 4 m/s 759 mmHg 81%
17:00 +15°C° 0.1 mm 4 m/s 759 mmHg 84%
18:00 +16°C° 0.1 mm 3 m/s 759 mmHg 86%
19:00 +16°C° 0 mm 3 m/s 759 mmHg 87%
20:00 +16°C° 0 mm 3 m/s 759 mmHg 87%
21:00 +16°C° 0 mm 3 m/s 760 mmHg 88%
22:00 +16°C° 0.3 mm 3 m/s 760 mmHg 88%
23:00 +16°C° 0.3 mm 3 m/s 760 mmHg 89%
Mostrar mais